[[{"header":{"parameterUnit":"m.s-1","parameterCategory":1,"la1":30.2991,"la2":30.254,"lo1":-89.0895,"lo2":-89.0444,"dy":0.0017,"dx":0.0017,"nx":28,"ny":28,"refTime":"2024-03-10T03:00:00:Z","depth":0,"parameterNumber":2,"parameterNumberName":"U-component_of_WINDS"},"data":[0,0,0,0,0,0,0,0,0,0,0,0,0,0,0,0,0,0,0,0,0,0,0,0,0,0,0,0,0,0,0,0,0,0,0,0,0,0,0,0,0,0,0,0,0,0,0,0,0,0,0,0,0,0,0,0,0,0,0.1656,0.1656,0,0.1651,0.1651,0.1651,0.1686,0.1687,0.1688,0.1689,0.168,0.1679,0.1678,0,0,0,0,0,0,0,0,0,0,0,0,0,0.1693,0.1692,0.1656,0.1656,0.1656,0.1651,0.1651,0.1651,0.1686,0.1687,0.1688,0.1689,0.1681,0.1679,0.1678,0,0,0,0,0,0,0,0,0,0,0,0,0,0.1681,0.1692,0.1656,0.1673,0.1674,0.1651,0.1651,0.1651,0.1686,0.1687,0.1689,0.169,0.1681,0.1679,0.1678,0.1637,0,0,0.1672,0.1672,0,0,0,0,0,0,0,0,0.1682,0.168,0.1671,0.1672,0.1673,0.1671,0.1661,0.1646,0.1685,0.1681,0.1689,0.1691,0.1676,0.1674,0.167,0.1637,0.1636,0.1672,0.1671,0.167,0.167,0,0,0,0,0,0,0,0.1683,0.168,0.1654,0.167,0.1672,0.168,0.168,0.1658,0.167,0.1682,0.1684,0.1683,0.1677,0.1672,0.167,0.1636,0.1672,0.1671,0.167,0.1669,0.1568,0.1567,0,0,0,0,0,0,0.1682,0.1681,0.1654,0.1654,0.1681,0.1678,0.1678,0.167,0.167,0.1672,0.1682,0.1685,0.1674,0.1672,0.167,0.1621,0.167,0.1669,0.1668,0.157,0.1568,0.1566,0,0,0,0,0,0,0.1682,0.1679,0.1655,0.1668,0.1666,0.1676,0.1667,0.1669,0.1664,0.1671,0.1673,0.1675,0.1675,0.1672,0.1645,0.1622,0.1668,0.1666,0.1572,0.1569,0.1567,0.1525,0,0,0,0,0,0,0.1683,0.1679,0.1664,0.1667,0.1665,0.163,0.1665,0.1668,0.1662,0.1665,0.1665,0.1666,0.1676,0.1647,0.1643,0.162,0.1665,0.1574,0.1571,0.1568,0.1528,0.1521,0.1515,0,0,0,0,0,0.1684,0.1652,0.1663,0.166,0.1647,0.1629,0.1627,0.1641,0.166,0.1644,0.1649,0.1666,0.1626,0.1644,0.164,0.1616,0.1576,0.1572,0.1568,0.1531,0.1523,0.1515,0,0,0,0,0,0,0.1644,0.1653,0.1665,0.1633,0.163,0.1635,0.1616,0.1631,0.1622,0.1625,0.1642,0.1641,0.1611,0.1611,0.1632,0.1576,0.1604,0.1599,0.1577,0.1569,0.1562,0.1562,0.1664,0,0,0,0,0,0.1632,0.1618,0.1626,0.1597,0.1595,0.1606,0.1598,0.1609,0.1606,0.1605,0.1607,0.1602,0.1589,0.1579,0.1567,0.1529,0.1529,0.1511,0.1504,0.1499,0.1494,0.1473,0.1464,0.1554,0.1554,0.1554,0,0,0.1606,0.1609,0.1598,0.1589,0.1588,0.1571,0.1604,0.1586,0.1574,0.1602,0.1576,0.1577,0.1573,0.154,0.1526,0.154,0.1469,0.1494,0.149,0.1487,0.1468,0.1459,0.1452,0.1552,0.1552,0.1553,0,0,0.1549,0.1551,0.1526,0.1525,0.1524,0.1531,0.1525,0.1528,0.153,0.1505,0.1526,0.1511,0.1488,0.1484,0.1479,0.1422,0.1437,0.1418,0.1382,0.1361,0.1354,0.1348,0.1326,0.1318,0.1413,0.1413,0.1413,0,0.1516,0.1494,0.1511,0.1492,0.1486,0.1513,0.1487,0.1485,0.1479,0.1474,0.149,0.1461,0.146,0.1426,0.1412,0.1408,0.14,0.1416,0.1354,0.1348,0.1342,0.1322,0.1314,0.141,0.1411,0.1411,0.1411,0,0.1453,0.1437,0.1417,0.1412,0.1405,0.1382,0.1395,0.1385,0.1397,0.1403,0.1376,0.1377,0.1365,0.1358,0.1369,0.1325,0.1334,0.1352,0.1379,0.1331,0.1312,0.1304,0.1407,0.1408,0.1409,0.1409,0,0,0.1369,0.1375,0.1367,0.1365,0.1366,0.1353,0.1332,0.1321,0.1312,0.1307,0.1288,0.1268,0.1285,0.128,0.1291,0.1273,0.1226,0.1293,0.1293,0.1279,0.1176,0.116,0.1151,0.1237,0.1235,0.1234,0.1175,0,0.1313,0.1277,0.1292,0.1254,0.1239,0.1265,0.1246,0.1244,0.1249,0.1236,0.1241,0.1226,0.1251,0.1247,0.1231,0.1235,0.1205,0.124,0.1217,0.1216,0.1215,0.1141,0.1125,0.1069,0.1168,0.1167,0.1166,0,0.1241,0.1235,0.1196,0.1199,0.1193,0.1176,0.1168,0.1156,0.1154,0.1159,0.1153,0.1168,0.1146,0.1175,0.1144,0.1167,0.116,0.116,0.1159,0.1155,0.1187,0.1133,0.1052,0.1043,0.1155,0.1156,0.1156,0,0.1182,0.1163,0.1137,0.1135,0.1139,0.1126,0.1127,0.1126,0.1119,0.1112,0.1107,0.1096,0.109,0.1081,0.1093,0.1113,0.106,0.109,0.1061,0.1061,0.1047,0.1047,0.0961,0.1046,0.1046,0.1046,0.1046,0,0.1116,0.109,0.111,0.1094,0.1066,0.1084,0.1056,0.1059,0.1059,0.1043,0.1065,0.1049,0.1067,0.1052,0.1061,0.1033,0.1031,0.1033,0.1035,0.103,0.1029,0.1023,0.1026,0.1044,0.1044,0.1045,0.1045,0,0.1043,0.1056,0.1029,0.1035,0.1037,0.1015,0.102,0.1005,0.1013,0.0992,0.0988,0.0999,0.0983,0.0995,0.0979,0.0985,0.0948,0.0957,0.0949,0.095,0.092,0.0922,0.0825,0.0812,0.0907,0.0906,0.0906,0,0.0999,0.098,0.0985,0.0976,0.0976,0.0962,0.0955,0.0972,0.0964,0.096,0.0945,0.0932,0.0921,0.0895,0.0901,0.0889,0.0896,0.0863,0.0894,0.0889,0.0893,0.0893,0.089,0.0855,0.0854,0.0854,0.0853,0,0.0918,0.0926,0.0915,0.0907,0.0898,0.0892,0.0888,0.0879,0.0897,0.0886,0.0871,0.0864,0.0848,0.0834,0.0824,0.0824,0.084,0.0844,0.0836,0.0828,0.0824,0.0824,0.0929,0.0845,0.0846,0.0846,0.0847,0.0847,0.0857,0.0841,0.0842,0.0829,0.0828,0.0824,0.081,0.0816,0.0804,0.0793,0.0805,0.0786,0.0784,0.0773,0.0771,0.0756,0.0769,0.0758,0.0755,0.0752,0.0747,0.0828,0.0754,0.0755,0.0755,0.0755,0.0755,0,0.0775,0.0778,0.0766,0.076,0.075,0.0769,0.0765,0.0755,0.0739,0.0737,0.0727,0.0709,0.0695,0.0701,0.0689,0.0675,0.0683,0.0671,0.0671,0.0671,0.0736,0.0743,0.0666,0.0666,0.0666,0.0666,0.0666,0.0666,0.0732,0.0705,0.0713,0.0686,0.0689,0.0671,0.0667,0.0663,0.0661,0.0641,0.063,0.0635,0.0635,0.0624,0.0612,0.0614,0.0607,0.0592,0.0597,0.0657,0.0666,0.0674,0.0681,0.0592,0.0591,0.0532,0.0531,0.0531]},{"header":{"parameterUnit":"m.s-1","parameterCategory":1,"la1":30.2991,"la2":30.254,"lo1":-89.0895,"lo2":-89.0444,"dy":0.0017,"dx":0.0017,"nx":28,"ny":28,"refTime":"2024-03-10T03:00:00:Z","depth":0,"parameterNumber":3,"parameterNumberName":"V-component_of_WINDS"},"data":[0,0,0,0,0,0,0,0,0,0,0,0,0,0,0,0,0,0,0,0,0,0,0,0,0,0,0,0,0,0,0,0,0,0,0,0,0,0,0,0,0,0,0,0,0,0,0,0,0,0,0,0,0,0,0,0,0,0,-4.6884,-4.6885,0,-4.6986,-4.6987,-4.6988,-4.6905,-4.6901,-4.6898,-4.6894,-4.6997,-4.7003,-4.7009,0,0,0,0,0,0,0,0,0,0,0,0,0,-4.6614,-4.6619,-4.6884,-4.6885,-4.6886,-4.6986,-4.6987,-4.6989,-4.6905,-4.6901,-4.6897,-4.6893,-4.6995,-4.7002,-4.7009,0,0,0,0,0,0,0,0,0,0,0,0,0,-4.6725,-4.6621,-4.6883,-4.6857,-4.6855,-4.6986,-4.6987,-4.6989,-4.6906,-4.6901,-4.6896,-4.6891,-4.6993,-4.7001,-4.701,-4.7172,0,0,-4.7038,-4.7042,0,0,0,0,0,0,0,0,-4.6719,-4.6735,-4.6859,-4.6859,-4.6857,-4.6927,-4.693,-4.705,-4.6908,-4.6887,-4.6894,-4.6888,-4.6978,-4.6988,-4.7019,-4.7177,-4.7181,-4.7039,-4.7044,-4.7048,-4.7051,0,0,0,0,0,0,0,-4.6711,-4.673,-4.6924,-4.6861,-4.686,-4.6839,-4.6849,-4.6952,-4.6961,-4.6888,-4.6882,-4.6896,-4.6976,-4.701,-4.702,-4.7183,-4.7039,-4.7047,-4.7052,-4.7056,-4.748,-4.7485,0,0,0,0,0,0,-4.6707,-4.6725,-4.6921,-4.6927,-4.6774,-4.6848,-4.6859,-4.691,-4.6959,-4.6962,-4.69,-4.6891,-4.6997,-4.701,-4.7024,-4.7218,-4.7048,-4.7057,-4.7062,-4.7474,-4.7481,-4.7487,0,0,0,0,0,0,-4.6701,-4.6725,-4.6917,-4.6824,-4.6847,-4.6858,-4.6916,-4.6915,-4.6949,-4.6968,-4.6969,-4.6933,-4.6994,-4.7011,-4.7136,-4.722,-4.7061,-4.7069,-4.7467,-4.7476,-4.7484,-4.7606,0,0,0,0,0,0,-4.6694,-4.6724,-4.6786,-4.6826,-4.6852,-4.7029,-4.6921,-4.6921,-4.6965,-4.6954,-4.7,-4.7002,-4.6991,-4.7123,-4.7145,-4.7229,-4.7076,-4.746,-4.7471,-4.7481,-4.7595,-4.7618,-4.7638,0,0,0,0,0,-4.6685,-4.6815,-4.6789,-4.6813,-4.693,-4.7034,-4.7048,-4.7033,-4.6972,-4.7034,-4.7047,-4.7001,-4.7207,-4.7137,-4.7161,-4.7249,-4.7454,-4.7468,-4.7481,-4.7585,-4.7613,-4.7637,0,0,0,0,0,0,-4.6783,-4.682,-4.6792,-4.6939,-4.6984,-4.7019,-4.7097,-4.7064,-4.7126,-4.7114,-4.7091,-4.7102,-4.7235,-4.7254,-4.7175,-4.7409,-4.7321,-4.7339,-4.7392,-4.7419,-4.744,-4.7433,-4.7083,0,0,0,0,0,-4.6822,-4.6903,-4.693,-4.7058,-4.7082,-4.7086,-4.713,-4.7115,-4.716,-4.7179,-4.72,-4.7246,-4.732,-4.737,-4.744,-4.7596,-4.7606,-4.7669,-4.769,-4.7708,-4.7725,-4.781,-4.7839,-4.7531,-4.7531,-4.753,0,0,-4.6903,-4.6933,-4.6985,-4.7079,-4.7112,-4.7196,-4.7103,-4.7196,-4.7258,-4.7192,-4.7313,-4.7331,-4.7379,-4.7521,-4.7585,-4.7541,-4.7812,-4.7725,-4.7739,-4.7746,-4.7827,-4.7856,-4.7882,-4.754,-4.7538,-4.7537,0,0,-4.7094,-4.7125,-4.7235,-4.7271,-4.7322,-4.7324,-4.735,-4.7391,-4.7401,-4.7521,-4.7474,-4.7547,-4.7677,-4.7714,-4.775,-4.7956,-4.7917,-4.7979,-4.8093,-4.8176,-4.8201,-4.8222,-4.8298,-4.8325,-4.7996,-4.7996,-4.7996,0,-4.7188,-4.7315,-4.7296,-4.7394,-4.7437,-4.7381,-4.7493,-4.7528,-4.7599,-4.763,-4.758,-4.7742,-4.7771,-4.7922,-4.7972,-4.8002,-4.8032,-4.7975,-4.8199,-4.822,-4.824,-4.8312,-4.834,-4.8003,-4.8003,-4.8002,-4.8001,0,-4.7429,-4.7517,-4.76,-4.7672,-4.7724,-4.7828,-4.7825,-4.788,-4.786,-4.7867,-4.7991,-4.8023,-4.8099,-4.8133,-4.8114,-4.8282,-4.8254,-4.8202,-4.8113,-4.8277,-4.8344,-4.8371,-4.8014,-4.8012,-4.8009,-4.8007,0,0,-4.7686,-4.7747,-4.7778,-4.7811,-4.7863,-4.7931,-4.8033,-4.8108,-4.8156,-4.8207,-4.8292,-4.8403,-4.8356,-4.8397,-4.8381,-4.8454,-4.8618,-4.8393,-4.8394,-4.8435,-4.8806,-4.8846,-4.8878,-4.8591,-4.8596,-4.86,-4.8803,0,-4.7881,-4.806,-4.8046,-4.8214,-4.8296,-4.8245,-4.8334,-4.8376,-4.8385,-4.8455,-4.8465,-4.8545,-4.8475,-4.85,-4.857,-4.8583,-4.8692,-4.8568,-4.8671,-4.8674,-4.8662,-4.8913,-4.8956,-4.9146,-4.8828,-4.8833,-4.8836,0,-4.8133,-4.8195,-4.8372,-4.8414,-4.8448,-4.8528,-4.8597,-4.8664,-4.8711,-4.8712,-4.8759,-4.8731,-4.8833,-4.8741,-4.8882,-4.8798,-4.8839,-4.8852,-4.8858,-4.8869,-4.8767,-4.8932,-4.9205,-4.9235,-4.8877,-4.8873,-4.8871,0,-4.8306,-4.8432,-4.8555,-4.8584,-4.8635,-4.8693,-4.8717,-4.8758,-4.8805,-4.8864,-4.8895,-4.8965,-4.9004,-4.9059,-4.9051,-4.8984,-4.9195,-4.9102,-4.92,-4.92,-4.9248,-4.9245,-4.9534,-4.9271,-4.9271,-4.927,-4.927,0,-4.8527,-4.8637,-4.8633,-4.8709,-4.8832,-4.8814,-4.8936,-4.8953,-4.899,-4.9068,-4.9027,-4.9101,-4.9085,-4.9158,-4.9152,-4.9271,-4.9288,-4.9292,-4.929,-4.9297,-4.9297,-4.9325,-4.9313,-4.9278,-4.9276,-4.9275,-4.9273,0,-4.8741,-4.8742,-4.8873,-4.8911,-4.8923,-4.9012,-4.9044,-4.9116,-4.9122,-4.9221,-4.9243,-4.9252,-4.9337,-4.9333,-4.9428,-4.9424,-4.9571,-4.9552,-4.9556,-4.9553,-4.9652,-4.9643,-4.997,-5.0012,-4.9721,-4.9723,-4.9726,0,-4.8883,-4.8967,-4.9014,-4.9064,-4.9093,-4.9173,-4.9221,-4.9207,-4.9258,-4.9318,-4.9383,-4.9463,-4.9527,-4.9664,-4.9679,-4.9752,-4.9735,-4.9845,-4.9746,-4.9752,-4.9739,-4.9735,-4.9744,-4.9865,-4.9868,-4.9871,-4.9873,0,-4.9135,-4.9132,-4.9203,-4.9275,-4.9334,-4.939,-4.9441,-4.9484,-4.9475,-4.9535,-4.9621,-4.9671,-4.9769,-4.985,-4.992,-4.9943,-4.9908,-4.9903,-4.993,-4.994,-4.994,-4.9943,-4.9611,-4.9897,-4.9894,-4.9892,-4.9891,-4.989,-4.9318,-4.9392,-4.9437,-4.9518,-4.9555,-4.9604,-4.9674,-4.9689,-4.9761,-4.9841,-4.9828,-4.9925,-4.9969,-5.006,-5.009,-5.0165,-5.0126,-5.0165,-5.0175,-5.0185,-5.0197,-4.9926,-5.0177,-5.0177,-5.0176,-5.0175,-5.0175,0,-4.957,-4.9597,-4.9672,-4.9746,-4.981,-4.977,-4.9825,-4.9881,-4.9968,-5.0012,-5.0077,-5.0177,-5.0255,-5.0276,-5.0352,-5.0408,-5.0394,-5.0429,-5.0425,-5.0432,-5.0227,-5.0197,-5.0439,-5.0439,-5.0439,-5.0439,-5.0439,-5.0439,-4.9709,-4.9832,-4.9834,-4.9975,-5.0,-5.0096,-5.0131,-5.0176,-5.0212,-5.0326,-5.0392,-5.0405,-5.0441,-5.0519,-5.0589,-5.0593,-5.0623,-5.0666,-5.0663,-5.0472,-5.0446,-5.0421,-5.0393,-5.0672,-5.0672,-5.0862,-5.0864,-5.0865]}]]